TimeCDT,TemperatureF,Dew PointF,Humidity,Sea Level PressureIn,VisibilityMPH,Wind Direction,Wind SpeedMPH,Gust SpeedMPH,PrecipitationIn,Events,Conditions,WindDirDegrees,DateUTC
12:52 AM,64.0,55.9,75,29.93,10.0,SE,6.9,-,N/A,,Clear,130,2012-08-22 05:52:00
1:52 AM,62.1,55.0,78,29.93,10.0,ESE,5.8,-,N/A,,Clear,120,2012-08-22 06:52:00
2:52 AM,61.0,55.0,81,29.92,10.0,ESE,8.1,-,N/A,,Clear,120,2012-08-22 07:52:00
3:52 AM,59.0,54.0,83,29.92,10.0,ESE,8.1,-,N/A,,Clear,120,2012-08-22 08:52:00
4:52 AM,60.1,54.0,80,29.92,10.0,ESE,8.1,-,N/A,,Clear,120,2012-08-22 09:52:00
5:52 AM,57.9,53.1,84,29.92,10.0,ESE,6.9,-,N/A,,Clear,110,2012-08-22 10:52:00
6:52 AM,57.0,53.1,87,29.93,10.0,East,6.9,-,N/A,,Clear,100,2012-08-22 11:52:00
7:52 AM,59.0,54.0,83,29.93,10.0,ESE,9.2,-,N/A,,Clear,110,2012-08-22 12:52:00
8:52 AM,66.9,55.9,68,29.93,10.0,ESE,8.1,-,N/A,,Clear,120,2012-08-22 13:52:00
9:52 AM,75.9,57.9,54,29.93,10.0,SSE,5.8,-,N/A,,Clear,150,2012-08-22 14:52:00
10:52 AM,82.9,61.0,47,29.92,10.0,Variable,6.9,-,N/A,,Clear,0,2012-08-22 15:52:00
11:52 AM,88.0,61.0,40,29.91,10.0,SSW,11.5,18.4,N/A,,Clear,200,2012-08-22 16:52:00
12:52 PM,90.0,61.0,38,29.90,10.0,SSW,17.3,26.5,N/A,,Clear,210,2012-08-22 17:52:00
1:52 PM,90.0,57.9,34,29.89,10.0,SSW,18.4,27.6,N/A,,Clear,210,2012-08-22 18:52:00
2:52 PM,91.0,57.0,32,29.87,10.0,South,17.3,27.6,N/A,,Clear,190,2012-08-22 19:52:00
3:52 PM,91.0,55.9,30,29.86,10.0,SW,18.4,27.6,N/A,,Clear,220,2012-08-22 20:52:00
4:52 PM,88.0,57.0,35,29.86,10.0,SSW,15.0,25.3,N/A,,Clear,200,2012-08-22 21:52:00
5:52 PM,88.0,55.9,34,29.86,10.0,SSW,12.7,26.5,N/A,,Clear,210,2012-08-22 22:52:00
6:52 PM,87.1,57.0,36,29.84,10.0,SSW,12.7,20.7,N/A,,Clear,200,2012-08-22 23:52:00
7:52 PM,82.9,57.9,42,29.83,10.0,South,9.2,-,N/A,,Clear,180,2012-08-23 00:52:00
8:52 PM,78.1,57.0,48,29.83,10.0,SSE,6.9,-,N/A,,Clear,150,2012-08-23 01:52:00
9:52 PM,71.1,57.9,63,29.85,10.0,SE,8.1,-,N/A,,Clear,130,2012-08-23 02:52:00
10:52 PM,73.9,55.0,52,29.85,10.0,South,6.9,-,N/A,,Clear,170,2012-08-23 03:52:00
11:52 PM,79.0,53.1,40,29.84,10.0,South,11.5,20.7,N/A,,Clear,190,2012-08-23 04:52:00